www.pogodaiklimat.ru

Погода и климат >> Архив погоды >> Россия >> Архангельская область >> Малые Кармакулы


АРХИВ ПОГОДЫ в Малых Кармакулах

Время (UTC), дата Ветер
(напр.,м/с)
 
Видим.   Явления Облачность Т
(С)
Тd
(С)
f
(%)
Тe
(С)
Тes
(С)
Комфортность P
(гПа)
Po
(гПа)
Тmin
(С)
Tmax
(С)
R
(мм)
R24
(мм)
S
(см)
09 17.05 ЮВ 5 4000 м слаб. снег 10/6 300 м
[Frnb As op]
+0.5 -0.1 96 -6 -5 1006.4 1004.6
12 17.05 ЮВ 6
{11}
20 км {снег} 8/4 300 м
[Sc Ac trans]
+1.6 +0.5 92 -5 -4 1008.5 1006.7
15 17.05 ЮВ 8
{11}
20 км 6/3 300 м
[Sc Ac trans Ci fib]
+1.5 +0.4 92 -6 -5 1010.7 1008.9 +1.7 0.5
18 17.05 В 6
{11}
20 км 4/3 600 м
[Sc Ac trans Ci fib]
+0.6 -0.8 90 -6 -6 1012.4 1010.6
21 17.05 В 7
{11}
20 км 1/1 600 м
[Sc]
-0.3 -2.1 88 -8 -8 1013.1 1011.3
00 18.05 С 4
{10}
4000 м слаб. ливневой снег 9/3 300 м
[Cb cap Ac trans]
-0.6 -2.4 88 -6 -6 1014.5 1012.7
03 18.05 С 5 4000 м слаб. ливневой снег 10/10 240 м
[Cb cap]
-0.4 -1.0 96 -7 -7 1015.2 1013.4 -0.6 0.4
06 18.05 СЗ 2
{11}
20 км {ливн. осадки} 8/3 300 м
[Cu Sc Ac trans Ci fib]
+1.0 -1.6 83 -2 +1 1016.1 1014.3
09 18.05 В 15
{21}
20 км 10/1 600 м
[Sc Ac und]
+1.0 -1.9 81 -8 -8 1016.6 1014.8
12 18.05 В 19
{24}
10 км позёмок 9/0
[Ac trans Ci fib]
-0.2 -4.0 76 -10 -10 1018.0 1016.2
15 18.05 В 16
{24}
10 км позёмок 9/0
[Ac trans Ci fib]
-0.2 -4.0 76 -10 -10 1019.9 1018.1 +1.1
18 18.05 В 12
{21}
20 км {метель} 9/0
[Ac trans Ci fib]
+0.7 -4.3 69 -8 -8 1021.1 1019.3
21 18.05 С 2
{14}
20 км 9/0
[Ac trans Ci fib]
-1.2 -5.9 70 -5 -5 1022.9 1021.1
00 19.05 СВ 2 20 км 8/0
[Ci fib]
-0.8 -6.1 67 -4 -4 1023.2 1021.4
03 19.05 СЗ 2 20 км 6/0
[Ci fib]
-1.0 -6.0 69 -4 -2 1023.5 1021.7 -9.0
06 19.05 СЗ 1 20 км 1/0
[Ci fib]
0.0 -4.8 70 -2 +7 1023.9 1022.1
09 19.05 С 2 20 км 3/0
[Ac trans Ci fib]
+0.6 -3.4 75 -3 +5 1023.9 1022.1
12 19.05 С 3 20 км 4/0
[Ac trans Ci fib]
+0.8 -2.5 79 -4 +1 1023.8 1022.0
15 19.05 С 3 20 км 4/0
[Ac trans Ci fib]
+0.1 -1.7 88 -5 -3 1023.7 1021.9 +0.8
18 19.05 СВ 2 20 км 8/0
[Ac trans Ci fib]
-1.4 -2.8 90 -5 -5 1022.9 1021.1
21 19.05 Ю 1 20 км 6/0
[Ac trans Ci fib]
-2.9 -4.6 88 -5 -5 1022.9 1021.1
00 20.05 штиль 0 20 км 6/0
[Ac trans Ci fib]
-4.1 -6.7 82 -5 -4 1022.9 1021.1
03 20.05 СВ 2 20 км 8/0
[Ac trans Ci fib]
-3.7 -6.6 80 -8 -5 1023.0 1021.2 -4.5
06 20.05 С 3 20 км 8/1 600 м
[Sc Ac trans Ci fib]
-1.6 -4.3 82 -7 -3 1023.2 1021.4
09 20.05 С 6 20 км 8/3 600 м
[Sc Ac trans Ci fib]
-0.1 -1.0 94 -7 -5 1023.5 1021.7
12 20.05 С 7 20 км 10/3 600 м
[Sc Ac trans Ci fib]
+0.1 -0.8 94 -7 -7 1023.6 1021.8
15 20.05 С 8
{11}
20 км 9/4 600 м
[Sc Ac trans Ci fib]
-0.1 -1.0 94 -8 -8 1023.3 1021.5 +0.1
18 20.05 С 5
{11}
20 км 4/3 600 м
[Sc Ci fib]
-1.0 -2.3 91 -7 -7 1023.1 1021.3
21 20.05 С 4 20 км 9/8 700 м
[Sc Ac trans Ci fib]
-2.2 -3.1 94 -8 -8 1022.8 1021.0
00 21.05 С 5 20 км 10/6 630 м
[Cu Sc Ac und]
-1.6 -4.6 80 -8 -8 1021.8 1020.0
03 21.05 СЗ 2 20 км 10/4 300 м
[Cu Sc Ac und]
-1.4 -3.4 86 -5 -5 1021.0 1019.2 -2.2
06 21.05 С 5 20 км 9/4 300 м
[Cu Sc Ac trans]
-1.2 -2.9 88 -8 -7 1020.3 1018.5
09 21.05 С 5 20 км 9/4 300 м
[Sc Ac trans]
-1.2 -3.5 84 -8 -6 1019.6 1017.8
12 21.05 С 4 20 км 10/4 300 м
[Sc Ac und]
-1.4 -3.1 88 -7 -7 1019.4 1017.6
15 21.05 С 5 20 км 10/8 630 м
[Sc Ac und]
-1.8 -2.9 92 -8 -8 1018.4 1016.6 -1.1
18 21.05 С 2 20 км 10/6 700 м
[Sc Ac und]
-1.8 -3.6 87 -6 -6 1017.2 1015.4
21 21.05 С 1 4000 м слаб. ливневой снег 10/5 480 м
[Cb cap Ac und]
-2.4 -4.0 89 -5 -5 1015.7 1013.9
00 22.05 З 2 4000 м слаб. ливневой снег 9/5 450 м
[Cb cap Ac trans]
-2.6 -2.9 98 -7 -7 1014.4 1012.6
03 22.05 В 1 20 км {ливн. осадки} 8/6 300 м
[Cu Sc Ac trans]
-2.6 -3.9 91 -5 -4 1013.0 1011.2 -2.7 0.8
06 22.05 ЮВ 1 10 км слаб. ливневой снег 10/8 360 м
[Cb cap Ac und]
-1.2 -2.2 93 -3 -3 1012.0 1010.2
09 22.05 штиль 0 20 км {ливн. осадки} 10/4 300 м
[Cu hum Ac und]
-0.4 -2.8 84 -2 +1 1011.5 1009.7
12 22.05 С 1 4000 м слаб. ливневой снег 10/6 420 м
[Cb cap Ac und]
-0.2 -2.9 82 -2 -1 1011.1 1009.3
15 22.05 СВ 2 20 км {ливн. осадки} 9/1 300 м
[Cu hum Ac trans]
-1.4 -3.1 88 -5 -4 1010.7 1008.9 -0.2 0.3
18 22.05 В 3 20 км {ливн. осадки} 6/3 300 м
[Cu Sc Ac trans]
-3.5 -5.6 85 -9 -9 1010.2 1008.4
21 22.05 ЮЗ 1 20 км 9/8 630 м
[Cu Sc Ac trans]
-2.7 -4.6 87 -5 -5 1009.8 1008.0
00 23.05 ЮВ 1 20 км 9/8 720 м
[Cu Sc Ac trans]
-3.1 -5.1 86 -5 -5 1009.2 1007.4
03 23.05 СВ 2 20 км 6/3 300 м
[Cu Sc Ac trans Ci fib]
-2.2 -4.4 85 -6 -4 1008.2 1006.4 -3.5
06 23.05 В 3 20 км 8/0
[Ac trans Ci fib]
-1.8 -4.6 81 -7 -3 1008.4 1006.6
09 23.05 С 3 20 км 6/1 600 м
[Sc Ac trans Ci fib]
-1.4 -3.7 84 -6 -2 1008.8 1007.0
12 23.05 С 4 20 км 6/4 600 м
[Cu Sc Ac trans Ci fib]
-1.0 -3.6 82 -7 -5 1009.3 1007.5
15 23.05 С 4 4000 м слаб. ливневой снег 9/3 300 м
[Cb cap Ac trans]
-1.6 -3.6 86 -7 -7 1009.5 1007.7 -1.0 0.0
18 23.05 СВ 2 20 км {ливн. осадки} 8/5 660 м
[Sc Ac trans Ci fib]
-2.3 -3.8 89 -6 -6 1009.5 1007.7
21 23.05 В 1 20 км 9/6 750 м
[Sc Ac trans]
-2.7 -3.7 93 -5 -5 1009.3 1007.5
00 24.05 Ю 1 20 км 9/4 600 м
[Sc Ac trans]
-3.0 -3.7 95 -5 -5 1009.2 1007.4
03 24.05 В 1 20 км 10/5 300 м
[Cu Sc Ac und]
-2.2 -4.0 87 -4 -4 1009.3 1007.5 -3.0 0.0

 

Местоположение метеостанции Малые Кармакулы (Архангельская область, Россия): широта 72.36 долгота 52.71 высота над уровнем моря 14 м.

В архиве по умолчанию представлена погода в Малых Кармакулах за последнюю неделю. Архивные данные за месяц целиком и за предыдущие месяцы, начиная с января 2011 года, Вы можете получить, выбрав интересующий диапазон дат из раскрывающегося списка и нажав кнопку "Ввод!".


*Определитесь, кто Вы:
робот инопланетянин человек

Внимание! Время в таблицах - всемирное. Для получения местного времени необходимо прибавить поправку, которая равна 3 ч.

Смотрите также архив погоды в соседних городах и на ближайших метеорологических станциях:

Погода в Имени Федорова (Ненецкий АО, Россия) (310 км)
Погода на Колгуевом Острове (Ненецкий АО, Россия) (341 км)
Погода в Ходоварихе (Ненецкий АО, Россия) (383 км)
Погода на Мысе Белый Нос (Ненецкий АО, Россия) (409 км)
Погода в Бугрино (Ненецкий АО, Россия) (415 км)
Погода в Амдерме (Ненецкий АО, Россия) (433 км)
Погода в Сенгейском Шаре (Ненецкий АО, Россия) (435 км)
Погода на Мысе Константиновском (Ненецкий АО, Россия) (436 км)
Погода в Варандее (Ненецкий АО, Россия) (440 км)
Погода в Нарьян-Маре (Ненецкий АО, Россия) (526 км)

Пояснения к столбцам:

Ветер - указаны скорость ветра в м/с - средняя за 10 мин, порывы в срок и между сроками (в фигурных скобках) и направление, откуда дует ветер: С - северный, СВ - северо-восточный, В - восточный, ЮВ - юго-восточный, Ю - южный, ЮЗ - юго-западный, З - западный, СЗ - северо-западный.
Видимость - горизонтальная дальность видимости в метрах или километрах. При видимости от 1 до 10 км при отсутствии осадков обычно наблюдается дымка, при ухудшении видимости до 1 км и менее - туман. В сухую погоду видимость может ухудшаться дымом, пылью или мглою.
Явления - указаны атмосферные явления, наблюдавшиеся в срок или в последний час перед сроком; фигурными скобками обозначены явления, наблюдавшиеся между сроками (за 1-3 часа до срока); квадратными скобками обозначены град или гололедные отложения с указанием их диаметра в мм.
Облачность - указаны через наклонную черту общая и нижняя облачность в баллах и высота нижней границы облаков в метрах; квадратными скобками обозначены формы облаков: Ci - перистые, Cs - перисто-слоистые, Cc - перисто-кучевые, Ac - высококучевые, As - высокослоистые, Sc - слоисто-кучевые, Ns - слоисто-дождевые, Cu - кучевые, Cb - кучево-дождевые. Подробнее классификацию облаков см. в Атласе облаков (PDF).
T - Температура воздуха - температура, измеренная на высоте 2 м над землей.
Td - Температура точки росы - температура, при понижении до которой содержащийся в воздухе водяной пар достигнет насыщения.
f - Относительная влажность воздуха - влажноcть воздуха, измеренная на высоте 2 м над землей.
Te - Эффективная температура - температура, которую ощущает одетый по сезону человек в тени. Характеристика душности погоды. При расчете учитывается влияние влажности воздуха и скорости ветра на теплоощущения человека.
Tes - Эффективная температура на солнце - температура, которую ощущает человек, с поправкой на солнечный нагрев. Характеристика знойности погоды. Зависит от высоты солнца над горизонтом, облачности и скорости ветра. Ночью, в пасмурную погоду, а также при ветре 12 м/с и более поправка равна нулю.
P - Атмосферное давление - приведенное к уровню моря атмосферное давление.
Po - Атмосферное давление - измеренное на уровне метеостанции атмосферное давление.
Tmin - Минимальная температура - минимум температуры воздуха на высоте 2 м над землей.
Tmax - Максимальная температура - максимум температуры воздуха на высоте 2 м над землей.
R - Количество осадков - Количество выпавших осадков за период времени, мм. При наведении курсора мыши на число - период времени, за который выпало указанное количество осадков.
R24 - Количество осадков - Количество выпавших осадков за 24 часа, мм.
S - Снежный покров - Высота снежного покрова, см. При наведении курсора мыши на число - состояние снежного покрова и степень покрытия местности в баллах.